sat.trackr.live / text

‹ back to catalog

STARLINK-36313

NORAD 68156 · 2026-049Q

PAYLOAD ACTIVE UNKNOWN

§ Identity

Operator
Country
US
Launch date
2026-03-13
Launch site
AFWTR
Launch vehicle
Mass (kg)
RCS (m²)

Purposes: comms

External: N2YO · Heavens-Above · Gunter

§ Orbital elements

Epoch: 2026-09-19T00:58:40.316160Z

Period
93.91 min
Inclination
97.2849°
Eccentricity
0.0000696
Mean motion
15.33449475 rev/d
Perigee alt
465.1 km
Apogee alt
466.0 km
Semi-major
6,843.7 km
B*
4.2528e-4
RAAN
281.9617°
Arg perigee
95.6384°
Mean anomaly
264.4938°
Rev number
2,927

§ Raw data

STARLINK-363131 68156U 26049Q   26262.04074440  .00013681  00000+0  42528-3 0  99902 68156  97.2849 281.9617 0000696  95.6384 264.4938 15.33449475 29278

JSON: /api/v1/satellites/68156 · /tle

For live sub-satellite position, see the globe view (requires WebGL).

§ Visibility from observer

Set your observer location to see the next 7 days of passes ≥ 10°. The values pass through the URL so the page stays shareable.

No JS? Fill the form by hand. The geolocation button needs JavaScript.